Regional Weather Roundup
Issued by NWS

Home | Current Version | Previous Version | Graphics & Text | Print | Product List | Glossary Off
Versions: 1 2 3 4 5 6 7 8 9 10 11 12 13 14 15 16 17 18 19 20 21 22 23 24 25 26 27 28 29 30 31 32 33 34 35 36 37 38 39 40 41 42 43 44 45 46 47 48 49 50

000
ASUS43 KMKX 280721
RWRWI

WISCONSIN REGIONAL WEATHER ROUNDUP
NATIONAL WEATHER SERVICE MILWAUKEE/SULLIVAN WI
100 AM CST SUN DEC 28 2014

NOTE: "FAIR" INDICATES FEW OR NO CLOUDS BELOW 12,000 FEET WITH NO
SIGNIFICANT WEATHER AND/OR OBSTRUCTIONS TO VISIBILITY.

WIZ001-002-006>008-014>016-023>028-280800-
NORTHWEST WISCONSIN

CITY           SKY/WX    TMP DP  RH WIND       PRES   REMARKS
SUPERIOR ARPT  CLOUDY    21  14  75 W5        30.03S WCI  14
ASHLAND        CLOUDY    17  10  74 SW9       30.01S WCI   6
HAYWARD        PTCLDY    12   8  84 SW3       30.01F
SIREN          CLOUDY    15  11  82 SW7       30.05S WCI   6
CUMBERLAND     CLOUDY     7   3  85 S5        30.03S WCI  -2
RICE LAKE      MOCLDY    10   7  88 CALM      30.06S
CHETEK         MOCLDY    10   6  87 SW3       30.06F
LADYSMITH      CLEAR     10   7  91 SW6       30.04F WCI   0
EAU CLAIRE     CLEAR     10   4  76 SW6       30.09S WCI   0
MENOMONIE      CLOUDY     7   5  89 CALM      30.09S
NEW RICHMOND   CLOUDY    11   8  85 S6        30.07F WCI   2
OSCEOLA        CLOUDY    13   9  86 S6        30.10F WCI   4
$$

WIZ003>005-009-010-017-018-280800-
NORTH CENTRAL WISCONSIN

CITY           SKY/WX    TMP DP  RH WIND       PRES   REMARKS
MANITOWISH WTR PTCLDY    12  10  89 SW5       29.95S WCI   4
ARBOR VITAE    CLOUDY    17  13  84 W5        29.95F WCI  10
WOODRUFF       CLOUDY    17  13  84 W5        29.95F WCI  10
RHINELANDER    CLOUDY    12  10  92 SW5       29.97F WCI   4
EAGLE RIVER    CLOUDY    14  10  84 W7        29.94F WCI   4
LAND O LAKES   CLOUDY    16  12  86 W5        29.94F WCI   9
PHILLIPS       PTCLDY    10   8  89 SW5       29.98F WCI   2
TOMAHAWK       MOCLDY    13  10  88 CALM      30.00S
MEDFORD        CLEAR     10   8  88 W7        30.01S WCI   0
MERRILL        MOCLDY    12  10  92 W3        30.02S
$$

WIZ029-030-035-036-043>047-280800-
CENTRAL WISCONSIN

CITY           SKY/WX    TMP DP  RH WIND       PRES   REMARKS
WAUSAU         PTCLDY    14  11  87 W8        30.03S WCI   3
MOSINEE        CLEAR     14  14 100 W8        30.04S WCI   3
MARSHFIELD     CLEAR     13   9  84 W6        30.05S WCI   4
STEVENS POINT  CLEAR     17  13  87 W8        30.06S WCI   6
WAUPACA        CLEAR     23  19  83 W8        30.07S WCI  14
WAUTOMA        CLEAR     20  18  92 W6        30.08F WCI  12
WISC RAPIDS    CLEAR     18  12  77 W8        30.08F WCI   8
CAMP DOUGLAS   CLEAR     15  15  99 W5        30.10S WCI   8
$$

WIZ011>013-019>022-031-037>040-048>050-280800-
NORTHEAST WISCONSIN

CITY           SKY/WX    TMP DP  RH WIND       PRES   REMARKS
ANTIGO         CLOUDY    12  11  95 W6        29.99F WCI   2
SHAWANO        PTCLDY    22  18  83 W9        30.06S WCI  12
OCONTO         CLEAR     23  18  83 W8        30.04S WCI  13
STURGEON BAY   CLEAR     25  16  68 W10       30.03F WCI  15
GREEN BAY      CLEAR     24  19  81 W12       30.05F WCI  13
MANITOWOC      CLOUDY    26  20  77 W9G17     30.06S WCI  17
APPLETON       CLEAR     23  19  86 W12       30.06F WCI  12
CLINTONVILLE   CLEAR     21  18  86 W8        30.06S WCI  12
OSHKOSH        CLEAR     24  17  74 W8        30.07F WCI  15
$$

WIZ032>034-041-042-053>061-280800-
SOUTHWEST WISCONSIN

CITY           SKY/WX    TMP DP  RH WIND       PRES   REMARKS
LA CROSSE      CLEAR     15   8  73 S8        30.14F WCI   4
SPARTA         CLEAR     17  11  78 W6        30.12F WCI   8
VIROQUA        CLEAR     15  12  88 W6        30.09F WCI   7
BOSCOBEL       CLEAR     17  10  74 SW7       30.16F WCI   8
PRAIRIE DU CHI CLEAR     19  12  74 CALM      30.16F
PLATTEVILLE    CLEAR     19  16  88 CALM      30.13F
$$

WIZ056-057-062-063-064-067-068-280800-
SOUTH CENTRAL WISCONSIN

CITY           SKY/WX    TMP DP  RH WIND       PRES   REMARKS
REEDSBURG      CLEAR     19  15  83 W5        30.10F WCI  12
BARABOO/DELLS  CLEAR     20  17  86 W7        30.09F WCI  11
LONE ROCK      CLEAR     23  15  71 W9        30.14F WCI  13
MINERAL POINT  CLEAR     21  18  86 W6        30.10F WCI  14
MADISON        CLEAR     23  17  78 W7        30.10F WCI  15
MIDDLETON      CLEAR     23  19  83 W12       30.10F WCI  12
WATERTOWN      CLOUDY    26  20  80 W7        30.09S WCI  18
MONROE         MOCLDY    21  19  93 W8        30.11R WCI  12
JANESVILLE     CLOUDY    28  21  74 W9        30.11R WCI  20
$$

WIZ051-052-058>065-066-070>072-280800-
SOUTHEAST WISCONSIN

CITY           SKY/WX    TMP DP  RH WIND       PRES   REMARKS
MILWAUKEE      PTCLDY    29  19  66 W12       30.07S WCI  19
WAUKESHA       MOCLDY    27  19  74 W10       30.08S WCI  17
MILWAUKEE/TIMM PTCLDY    28  19  69 W8        30.08S WCI  20
RACINE         PTCLDY    30  21  69 W12       30.09R WCI  20
BURLINGTON     MOCLDY    28  20  73 W9G16     30.09S WCI  19
KENOSHA        CLOUDY    30  22  72 W13       30.08R WCI  20
FOND DU LAC    CLEAR     23  17  78 W6        30.08F WCI  16
SHEBOYGAN      CLEAR     26  18  71 W12       30.06S WCI  16
WEST BEND      CLEAR     27  19  74 W9G17     30.07S WCI  17
JUNEAU         CLEAR     23  19  83 W7        30.09S WCI  15
$$

LSZ147-162-280800-
LAKE SUPERIOR

STATION/POSITION TIME  TEMP    WIND        PRES    WAVE
                       AIR SEA DIR/SP/G            HT/PER
                 (UTC) (F)     (DEG/KT/KT) (MB)    (FT/S)
DEVILS ISLAND    0700   23     280/ 20/ 23 1016.8R
PORT WING        0600   24     260/ 10/ 14 1016.6F
SAXON HARBOR     0600   20     210/  4/ 10 1016.3F
$$

LMZ867-665-643>646-280800-
LAKE MICHIGAN

STATION/POSITION TIME  TEMP    WIND        PRES    WAVE
                       AIR SEA DIR/SP/G            HT/PER
                 (UTC) (F)     (DEG/KT/KT) (MB)    (FT/S)
CHAMBERS ISLAND  0600   27     270/  6/ 12 1016.9S
NORTHPORT PIER   0700   26     290/ 10/ 17 1015.9S
SISTER BAY       0613          310/ 19/ 23   N/A
ALGOMA LAKESHORE 0600          320/ 10/ 17   N/A
KEWAUNEE LAKESHO 0700   26     280/ 10/ 15 1016.2S
SHEBOYGAN LAKESH 0700   27 38  280/ 17/ 19 1018.7F
PORT WASHINGTON  0640   28     280/  9/ 18 1019.0F
MILWAUKEE LAKESH 0700   29     290/ 13/ 19   N/A
KENOSHA   LAKESH 0700   31     290/  9/ 13 1018.6R
$$

TC  - TEMPERATURE IN CELSIUS
VSB - VISIBILITY IN STATUTE MILES
WCI - WIND CHILL INDEX
HX  - HEAT INDEX




USA.gov is the U.S. government's official web portal to all federal, state and local government web resources and services.